W4FAA Weather Reports


time (UTC)temp
C
wind
direction
speed
KPH
gust
KPH
rain 1hr
cm
rain 24hr
cm
rain mn
cm
humidity
%
barometer
mb
20260505041530 19 81 4.8 9.7 0.00 0.00 0.00 87 1015.1
20260505040018 19 94 3.2 9.7 0.00 0.00 0.00 86 1015.1
20260505034520 20 83 3.2 6.4 0.00 0.00 0.00 85 1015.2
20260505033025 20 87 3.2 9.7 0.00 0.00 0.00 85 1015.5
20260505031526 20 84 4.8 11.3 0.00 0.00 0.00 84 1015.4
20260505030016 20 87 6.4 11.3 0.00 0.00 0.00 83 1015.3
20260505024519 20 84 6.4 12.9 0.00 0.00 0.00 83 1015.4
20260505023027 21 93 6.4 12.9 0.00 0.00 0.00 82 1015.3
20260505021531 21 71 4.8 6.4 0.00 0.00 0.00 81 1015.2
20260505020028 21 88 4.8 11.3 0.00 0.00 0.00 80 1015.2
20260505014516 22 88 8.0 17.7 0.00 0.00 0.00 79 1015.3
20260505013021 22 113 9.7 14.5 0.00 0.00 0.00 78 1015.1
20260505011526 22 82 6.4 11.3 0.00 0.00 0.00 77 1015.0
20260505010029 23 101 8.0 17.7 0.00 0.00 0.00 75 1014.9
20260505004528 23 108 11.3 17.7 0.00 0.00 0.00 74 1014.9
20260505003019 23 110 14.5 24.1 0.00 0.00 0.00 73 1014.5
20260505001524 23 121 11.3 19.3 0.00 0.00 0.00 71 1014.0
20260505000029 24 76 14.5 22.5 0.00 0.00 0.00 71 1014.1
20260504234533 24 82 8.0 17.7 0.00 0.00 0.00 70 1013.8
20260504233017 25 105 14.5 20.9 0.00 0.00 0.00 68 1013.6
20260504231521 25 112 16.1 24.1 0.00 0.00 0.00 67 1013.3
20260504230006 25 95 16.1 32.2 0.00 0.00 0.00 65 1013.4
20260504224513 26 92 17.7 25.7 0.00 0.00 0.00 64 1013.4
20260504223014 26 97 19.3 30.6 0.00 0.00 0.00 63 1013.2
20260504221519 26 86 20.9 32.2 0.00 0.00 0.00 62 1013.2
20260504220006 27 98 16.1 27.4 0.00 0.00 0.00 60 1013.2
20260504214518 27 104 19.3 27.4 0.00 0.00 0.00 59 1013.3
20260504213012 27 98 20.9 27.4 0.00 0.00 0.00 59 1013.3
20260504211526 27 94 19.3 27.4 0.00 0.00 0.00 60 1013.3
20260504210022 27 59 14.5 27.4 0.00 0.00 0.00 59 1013.3
20260504204514 27 100 20.9 32.2 0.00 0.00 0.00 58 1013.3
20260504203012 27 80 19.3 25.7 0.00 0.00 0.00 56 1013.3
20260504201514 27 80 16.1 29.0 0.00 0.00 0.00 57 1013.4
20260504200020 27 94 12.9 24.1 0.00 0.00 0.00 56 1013.5
20260504194523 28 96 17.7 29.0 0.00 0.00 0.00 56 1013.5
20260504193009 27 79 17.7 27.4 0.00 0.00 0.00 56 1013.7
20260504191520 27 81 14.5 30.6 0.00 0.00 0.00 58 1014.2
20260504190020 27 112 16.1 29.0 0.00 0.00 0.00 58 1014.4
20260504184528 27 84 17.7 24.1 0.00 0.00 0.00 58 1014.6
20260504183008 27 90 12.9 22.5 0.00 0.00 0.00 57 1014.9
20260504181517 27 46 16.1 29.0 0.00 0.00 0.00 59 1015.1
20260504180022 27 73 19.3 25.7 0.00 0.00 0.00 59 1015.3
20260504174524 27 84 17.7 27.4 0.00 0.00 0.00 57 1015.2
20260504173031 26 51 11.3 22.5 0.00 0.00 0.00 59 1015.5
20260504171511 26 79 8.0 17.7 0.00 0.00 0.00 57 1015.6
20260504081515 18 12 0.0 0.0 0.00 0.00 0.00 91 1014.8
20260504050016 20 40 0.0 6.4 0.00 0.00 0.00 86 1016.2
20260504044522 20 360 1.6 8.0 0.00 0.00 0.00 86 1016.1
20260504043024 20 34 0.0 4.8 0.00 0.00 0.00 86 1016.1